Weather History for Tel Aviv, Israel

Change the Weather History Date:

Tuesday, October 18, 2011

  Actual Average Record
Temperature  
Mean Temperature 74 °F -  
Max Temperature 84 °F 77 °F 93 °F (1996)
Min Temperature 65 °F 59 °F 62 °F (2005)
Cooling Degree Days 10    
Growing Degree Days 24 (Base 50)    
Moisture  
Dew Point 60 °F    
Average Humidity 59    
Maximum Humidity 78    
Minimum Humidity 40    
Precipitation  
Precipitation 0.00 in - - ()
Sea Level Pressure  
Sea Level Pressure 30.03 in    
Wind  
Wind Speed 3 mph ()    
Max Wind Speed 12 mph    
Max Gust Speed -    
Visibility 6.1 miles    
Events      
Averages and records for this station are not official NWS values.
T = Trace of Precipitation, MM = Missing Value Source: Averaged Metar Reports

Daily Weather History Graph

Daily Weather History Graph

Search for Another Location

Airport:

Trip Planner

Search our weather history database for the weather conditions in past years. The results will help you decide how hot, cold, wet, or windy it might be!

Date:

Astronomy

Oct. 18, 2011 Rise Set
Actual Time 5:45 AM IST 5:05 PM IST
Civil Twilight 5:20 AM IST 5:29 PM IST
Nautical Twilight 4:52 AM IST 5:58 PM IST
Astronomical Twilight 4:24 AM IST 6:26 PM IST
Moon 9:37 PM IST (10/18) 11:08 AM IST (10/18)
Length of Visible Light 12h 08m
Length of Day
11h 19m
Waning Gibbous, 67% of the Moon is Illuminated
Oct 18
Waning Gibbous
Oct 20
Last Quarter
Oct 26
New
Nov 2
First Quarter
Nov 10
Full

Hourly Weather History & Observations

Time (IST) Temp. Heat Index Dew Point Humidity Pressure Visibility Wind Dir Wind Speed Gust Speed Precip Events Conditions
12:50 AM 69.8 °F - 57.2 °F 64% 29.98 in - Variable 1.2 mph - N/A   Clear
1:50 AM 68.0 °F - 57.2 °F 68% 29.98 in - Variable 2.3 mph - N/A   Clear
2:00 AM 69 °F - 57 °F 57% 30.00 in 6 mi 2.3 mph - -  
2:50 AM 68.0 °F - 57.2 °F 68% 30.01 in - East 3.5 mph - N/A   Clear
3:50 AM 68.0 °F - 57.2 °F 68% 30.01 in - Variable 1.2 mph - N/A   Clear
4:50 AM 68.0 °F - 57.2 °F 68% 30.01 in - Variable 2.3 mph - N/A   Clear
5:50 AM 68.0 °F - 57.2 °F 68% 30.04 in - Variable 1.2 mph - N/A   Clear
6:50 AM 68.0 °F - 57.2 °F 68% 30.04 in - East 2.3 mph - N/A   Clear
7:50 AM 73.4 °F - 57.2 °F 57% 30.04 in - Variable 1.2 mph - N/A   Clear
8:00 AM 72 °F - 58 °F 51% 30.05 in 6 mi 1.2 mph - -   Clear
8:50 AM 78.8 °F - 59.0 °F 51% 30.04 in - Variable 1.2 mph - N/A   Clear
9:50 AM 78.8 °F - 57.2 °F 47% 30.06 in - WNW 2.3 mph - N/A   Clear
10:50 AM 80.6 °F 81.1 °F 59.0 °F 48% 30.04 in - NNW 4.6 mph - N/A   Clear
11:50 AM 80.6 °F 81.5 °F 60.8 °F 51% 30.04 in - NW 9.2 mph - N/A   Clear
12:50 PM 82.4 °F 82.5 °F 59.0 °F 45% 30.04 in - NW 8.1 mph - N/A   Clear
1:50 PM 80.6 °F 81.5 °F 60.8 °F 51% 30.01 in - WNW 9.2 mph - N/A   Clear
2:00 PM 81 °F - 61 °F 40% 30.02 in 6 mi WNW 9.2 mph - -   Clear
2:50 PM 80.6 °F 81.5 °F 60.8 °F 51% 30.01 in - NW 9.2 mph - N/A   Clear
3:50 PM 80.6 °F 81.8 °F 62.6 °F 54% 30.01 in 6.2 mi NW 11.5 mph - N/A   Scattered Clouds
4:50 PM 78.8 °F - 60.8 °F 54% 30.04 in - NNW 9.2 mph - N/A   Clear
5:50 PM 77.0 °F - 60.8 °F 57% 30.04 in - NNW 6.9 mph - N/A   Clear
6:50 PM 77.0 °F - 60.8 °F 57% 30.04 in - North 3.5 mph - N/A   Clear
7:50 PM 75.2 °F - 60.8 °F 61% 30.06 in - North 3.5 mph - N/A   Clear
8:00 PM 75 °F - 61 °F 52% 30.06 in 6 mi North 3.5 mph - -  
8:50 PM 73.4 °F - 60.8 °F 65% 30.06 in 6.2 mi NNE 2.3 mph - N/A   Scattered Clouds
9:50 PM 73.4 °F - 62.6 °F 69% 30.06 in 6.2 mi North 6.9 mph - N/A   Scattered Clouds
10:50 PM 71.6 °F - 64.4 °F 78% 30.06 in 6.2 mi North 5.8 mph - N/A   Mostly Cloudy
11:50 PM 71.6 °F - 64.4 °F 78% 30.06 in 6.2 mi North 5.8 mph - N/A   Scattered Clouds